Probability
0 0 0 0 0 0 0 0 0 0 0 0 0 0 0 0 0 0 0 0 0 0 0 0 0 0 0 0 0 0 0 0 0 0 0 0 0 0 0 0 0 0 0
0 0 0 0 0 0 0 0 0 0 0 0 0 0 0 0 0 0 0 0 0 0 0 0 0 0 0 0 0 0 0 0 0 0 0 0 0 0 0 0 0 0 0
0 0 0 0 0 0 0 0 0 0 0 0 0 0 0 0 0 0 0 1 1 0 0 0 0 0 0 0 0 0 0 0 0 0 0 0 0 0 0 0 0 0 0
0 0 0 0 0 0 0 0 0 1 1 1 0 0 0 0 0 0 0 1 1 0 0 0 0 0 0 0 0 0 0 0 0 0 0 0 0 0 0 0 0 0 0
0 0 0 0 0 0 0 0 0 1 2 2 1 0 0 0 0 0 0 0 0 0 0 0 0 0 0 0 0 0 0 0 0 0 0 0 0 0 0 0 0 0 0
0 0 0 0 0 0 0 0 0 0 1 2 2 1 0 0 0 0 0 0 0 0 0 0 0 0 0 0 0 0 0 0 0 0 0 0 0 0 0 0 0 0 0
0 0 0 0 0 0 0 0 0 0 0 1 1 1 0 0 0 0 0 0 0 0 0 0 0 0 0 0 0 0 0 0 0 0 0 0 0 0 0 0 0 0 0
0 0 0 0 0 0 0 0 0 0 0 0 0 0 0 0 0 0 0 0 0 0 0 0 0 0 0 0 0 0 0 0 0 0 0 0 0 0 0 0 0 0 0
0 0 0 0 0 0 0 0 0 0 0 0 0 0 0 0 0 0 0 0 0 0 0 0 0 0 0 0 0 0 0 0 0 0 0 0 0 0 0 0 0 0 0
0 0 0 0 0 0 0 0 0 0 0 0 0 0 0 0 0 0 0 0 0 0 0 0 0 0 0 0 0 0 0 0 0 0 0 0 0 0 0 0 0 0 0
0 0 0 0 0 0 0 0 0 0 0 0 0 0 0 0 0 0 0 0 0 0 0 0 0 0 0 0 0 0 0 0 0 0 0 0 0 0 0 0 0 0 0
0 0 0 0 0 0 0 0 0 0 0 0 0 0 0 0 0 0 0 0 0 0 0 0 0 0 0 0 0 0 0 0 0 0 0 0 0 0 0 0 0 0 0
0 0 0 0 0 0 0 0 0 0 0 0 0 0 0 0 0 0 0 0 0 0 0 0 0 0 0 0 0 0 0 0 0 0 0 0 0 0 0 0 0 0 0
0 0 0 0 0 0 0 0 0 0 0 0 0 0 0 0 0 0 0 0 0 0 0 0 0 0 0 0 0 0 0 0 0 0 0 0 0 0 0 0 0 0 0
0 0 0 0 0 0 0 0 0 0 0 0 0 0 0 0 0 0 0 0 0 0 0 0 0 0 0 0 0 0 0 0 0 0 0 0 0 0 0 0 0 0 0
0 0 0 0 0 0 0 0 0 0 0 0 0 0 0 0 0 0 0 0 0 0 0 0 0 0 0 0 0 0 0 0 0 0 0 0 0 0 0 0 0 0 0
0 0 0 0 0 0 0 0 0 0 0 0 0 0 0 0 0 0 0 0 0 0 0 0 0 0 0 0 0 0 0 0 0 0 0 0 0 0 0 0 0 0 0
0 0 0 0 0 0 0 0 0 0 0 0 0 0 0 0 0 0 0 0 0 0 0 0 0 0 0 0 0 0 0 0 0 0 0 0 0 0 0 0 0 0 0
0 0 0 0 0 0 0 0 0 0 0 0 0 0 0 0 0 0 0 0 0 0 0 0 0 0 0 0 0 0 0 0 0 0 0 0 0 0 0 0 0 0 0
0 0 0 0 0 0 0 0 0 0 0 0 0 0 0 0 0 0 0 0 0 0 0 0 0 0 0 0 0 0 0 0 0 0 0 0 0 0 0 0 0 0 0
0 0 0 0 0 0 0 0 0 0 0 0 0 0 0 0 0 0 0 0 0 0 0 0 0 0 0 0 0 0 0 0 0 0 0 0 0 0 0 0 0 0 0
0 0 0 0 0 0 0 0 0 0 0 0 0 0 0 0 0 0 0 0 0 0 0 0 0 0 0 0 0 0 0 0 0 0 0 0 0 0 0 0 0 0 0
0 0 0 0 0 0 0 0 0 0 0 0 0 0 0 0 0 0 0 0 0 0 0 0 0 0 0 0 0 0 0 0 0 0 0 0 0 0 0 0 0 0 0
0 0 0 0 0 0 0 0 0 0 0 0 0 0 0 0 0 0 0 0 0 0 0 0 0 0 0 0 0 0 0 0 0 0 0 0 0 0 0 0 0 0 0
0 0 0 0 0 0 0 0 0 0 0 0 0 0 0 0 0 0 0 0 0 0 0 0 0 0 0 0 0 0 0 0 0 0 0 0 0 0 0 0 0 0 0
0 0 0 0 0 0 0 0 0 0 0 0 0 0 0 0 0 0 0 0 0 0 0 0 0 0 0 0 0 0 0 0 0 0 0 0 0 0 0 0 0 0 0
Wind_Speed
3 3 4 5 5 6 7 9 9 8 9 10 10 11 12 13 13 13 14 13 14 14 13 14 15 12 10 9 9 9 9 9 12 6 4 4 5 5 4 3 3 3 3
3 3 3 4 4 5 7 8 8 8 8 9 10 10 11 12 12 14 15 14 15 15 15 14 15 11 13 10 9 10 10 9 10 10 5 4 5 5 4 4 3 2 2
3 3 4 4 4 5 6 7 6 7 8 8 8 10 10 11 11 12 13 14 14 15 14 14 14 13 13 11 10 10 8 8 8 8 6 3 3 3 3 2 2 2 2
3 3 4 5 5 6 6 6 6 6 7 7 8 9 9 9 10 11 11 12 13 13 12 13 13 13 13 12 10 11 9 8 8 8 6 4 3 3 3 3 3 3 2
3 3 5 5 5 6 6 6 6 6 6 7 7 8 8 8 8 9 9 11 11 12 11 11 12 13 15 12 9 9 9 8 7 7 6 4 4 4 4 4 4 2 2
3 4 5 5 6 6 6 7 6 6 6 6 7 7 8 7 9 11 10 9 10 11 11 10 10 11 13 14 14 13 12 11 10 8 7 7 7 6 4 4 4 3 3
4 4 5 5 6 6 7 6 6 7 6 7 7 7 8 9 10 11 11 9 9 10 10 9 7 6 8 8 9 11 11 12 13 10 9 9 7 7 7 6 6 5 4
4 5 5 6 7 7 6 6 7 6 6 7 7 7 8 8 9 9 9 9 9 9 9 8 8 7 7 8 7 7 7 7 8 8 8 7 6 6 8 7 7 4 2
5 5 6 6 7 7 7 7 6 6 6 6 6 7 8 8 8 8 7 6 7 8 7 7 7 7 9 10 8 7 6 4 3 5 5 5 6 8 8 6 5 4 3
6 7 7 6 7 7 8 7 6 6 7 6 7 6 7 8 8 8 7 5 6 5 4 4 6 8 8 10 9 7 7 5 4 3 3 3 3 5 8 6 7 6 3
7 7 7 6 7 7 7 6 6 6 6 6 7 6 6 6 7 8 7 5 5 5 5 4 4 7 8 9 8 7 8 6 5 5 4 3 2 2 2 2 3 4 4
7 7 7 7 6 6 6 7 5 5 6 7 6 7 5 4 5 6 8 8 7 6 5 4 3 6 8 8 7 6 8 7 4 4 4 3 3 3 2 2 3 2 2
7 8 7 7 6 6 6 7 6 4 5 6 5 7 6 4 4 7 7 8 8 6 4 5 5 6 6 5 6 7 6 5 5 5 5 4 3 4 4 3 4 4 5
7 8 7 7 7 6 5 5 5 5 5 5 5 6 7 6 5 3 3 3 4 4 3 3 4 5 4 3 3 4 4 4 4 4 4 3 4 4 4 3 3 3 3
7 7 7 6 6 6 6 5 6 6 6 7 6 6 7 8 7 7 6 4 3 3 2 2 2 2 3 2 2 2 2 3 3 3 4 4 4 4 4 3 3 3 3
6 6 6 5 5 5 6 7 7 9 10 11 11 9 7 10 11 11 10 9 7 6 4 4 4 4 4 4 4 3 3 3 3 3 4 5 6 5 5 4 3 3 3
6 7 6 6 6 6 6 6 8 7 8 9 9 10 10 10 11 10 9 8 7 6 5 5 5 4 4 4 4 4 4 3 3 4 5 5 5 5 5 5 5 4 4
6 7 6 6 6 6 6 6 6 7 8 6 6 8 9 10 9 9 8 6 5 4 4 5 4 4 4 4 4 3 3 3 4 4 4 4 5 5 6 6 5 5 5
6 5 5 5 5 5 5 5 5 6 6 7 6 6 6 7 8 8 5 3 4 4 4 4 3 3 3 3 3 4 4 4 4 4 4 5 5 5 5 5 5 6 5
5 6 6 5 5 5 5 5 5 5 6 6 6 6 5 4 4 4 3 3 4 4 3 3 3 3 3 3 3 4 4 4 5 4 4 4 4 4 5 6 6 6 4
4 5 6 5 4 4 5 5 5 5 6 6 6 7 8 5 5 5 4 4 4 4 3 3 3 3 3 3 3 4 5 5 5 5 5 5 5 4 4 4 5 5 5
4 4 4 4 4 5 5 5 5 6 6 7 7 7 8 5 5 5 4 4 3 3 2 2 2 2 3 3 3 4 5 5 5 5 5 5 5 5 5 5 5 5 5
4 4 5 4 4 5 5 5 5 5 6 6 6 6 5 5 5 5 5 4 3 3 2 2 2 2 2 2 2 3 4 5 5 6 6 6 5 5 5 5 6 6 6
4 4 5 5 5 4 5 5 5 5 5 6 6 5 5 5 5 5 4 3 3 3 2 2 2 2 2 2 2 2 2 3 4 5 7 7 6 5 5 5 5 6 6
3 4 4 4 4 5 5 5 5 5 5 5 5 5 5 5 5 5 4 3 2 2 2 1 1 1 2 2 2 2 2 4 4 4 5 5 6 6 6 6 5 6 6
4 4 4 4 4 4 4 5 5 5 5 5 5 5 5 5 5 4 3 2 2 2 2 1 1 0 1 1 2 3 4 5 5 6 5 5 6 6 6 5 6 6 7
Wind_Direction
270 255 251 250 245 243 243 246 246 247 242 239 237 235 234 232 228 228 230 228 231 233 231 232 235 232 234 233 229 229 232 234 253 250 212 205 197 205 204 198 205 211 218
299 288 273 267 261 255 253 254 252 251 246 243 241 240 239 237 232 229 231 230 231 234 233 233 235 232 232 232 231 231 232 229 240 252 232 205 208 203 195 194 200 207 218
325 318 309 301 289 276 271 270 264 259 256 250 244 243 243 241 238 235 234 233 232 233 233 232 233 229 233 232 230 232 232 230 231 242 243 206 201 189 189 192 192 208 215
331 326 318 312 306 297 292 287 280 272 266 260 252 248 247 245 241 239 239 238 236 236 234 233 232 229 232 230 230 231 229 228 228 235 239 217 197 185 172 191 212 209 217
335 328 314 313 315 311 306 300 295 286 277 272 268 262 256 250 246 243 242 243 242 241 238 235 233 232 231 229 227 226 223 227 225 228 233 219 201 185 197 186 204 194 210
335 323 320 323 323 318 313 310 305 296 290 286 277 271 267 260 258 247 243 246 243 242 243 239 235 229 231 226 225 223 219 222 224 223 227 224 217 203 191 182 180 179 220
327 324 323 320 317 313 313 313 307 302 298 291 285 280 274 271 268 257 246 248 248 244 242 241 240 231 223 225 222 224 229 229 225 224 227 226 211 197 182 186 191 193 206
326 325 324 321 315 312 311 307 303 302 296 291 288 286 283 281 275 266 255 248 254 252 246 238 234 229 216 210 213 219 228 233 230 229 230 225 208 187 186 186 181 167 122
333 326 322 317 310 310 308 303 300 299 294 291 289 287 285 287 282 275 268 262 259 258 253 242 233 230 215 203 207 215 220 227 218 202 203 195 183 176 164 146 149 156 184
322 316 313 308 302 299 297 296 296 294 291 293 289 283 279 283 284 278 271 267 265 266 261 248 234 230 219 204 211 210 215 210 173 147 142 144 164 167 168 177 174 173 166
313 310 308 306 300 294 293 292 295 295 294 291 289 288 279 276 280 276 269 264 260 266 261 255 240 222 220 215 215 220 213 186 173 166 161 153 143 147 160 161 170 174 171
313 311 310 309 304 300 297 297 294 293 295 294 295 296 288 280 273 273 268 261 261 261 261 259 246 224 219 217 219 213 187 171 164 162 166 172 171 166 149 126 109 86 85
316 311 307 306 302 297 292 293 295 289 285 290 291 292 296 295 283 273 267 262 257 260 265 258 248 229 219 218 209 191 180 179 175 179 187 187 170 148 130 113 90 87 74
310 309 307 306 305 302 292 284 281 278 277 280 282 285 292 293 285 280 269 264 257 255 260 257 234 220 212 202 189 188 192 192 190 190 177 158 143 144 149 143 139 135 107
305 304 304 301 300 302 295 282 278 268 258 267 273 272 281 285 283 282 278 270 257 250 256 261 250 230 221 210 198 192 187 184 188 178 165 161 161 159 155 147 143 144 140
302 303 300 299 299 298 299 300 283 270 273 266 267 270 274 274 284 284 277 269 261 244 235 243 243 236 230 221 211 206 198 199 197 182 175 172 171 169 162 155 152 154 150
288 291 292 293 294 294 295 298 303 303 283 276 277 280 280 286 286 283 280 271 256 233 236 238 236 234 231 222 216 212 212 199 188 185 183 178 170 168 166 164 163 156 148
292 288 285 286 288 289 290 291 293 300 306 305 297 292 293 293 293 292 283 271 256 229 235 239 238 233 228 223 215 209 200 189 188 186 181 175 172 170 169 169 167 162 158
294 291 292 290 290 288 288 289 290 290 292 298 305 303 295 293 290 293 284 260 259 253 245 243 238 231 226 219 209 197 193 192 188 182 177 173 172 170 170 167 162 158 155
294 294 295 293 293 292 293 293 293 291 292 293 295 300 306 303 295 289 269 264 264 262 259 253 248 233 221 214 206 196 189 186 181 180 176 170 169 169 166 163 163 164 166
296 298 298 294 291 294 296 296 295 293 291 293 294 300 306 294 287 283 278 272 266 265 263 259 254 241 227 213 204 196 189 185 181 177 172 168 166 162 159 157 157 156 149
296 296 297 296 299 300 298 297 297 295 294 294 298 304 308 295 286 283 281 281 277 268 256 245 244 239 229 216 203 195 190 184 180 173 167 163 160 155 152 152 154 155 151
301 301 301 300 299 301 301 299 298 296 297 298 299 302 302 300 295 290 290 291 286 278 267 240 234 239 230 214 204 196 193 193 185 173 166 161 157 157 156 158 160 159 157
304 301 302 304 304 302 301 303 303 302 303 305 306 305 304 302 299 293 289 290 290 289 278 250 238 225 206 199 197 194 189 175 166 168 163 158 156 154 154 158 160 158 153
307 306 305 305 306 306 307 308 308 309 309 307 307 307 305 306 306 303 300 295 292 293 300 293 266 223 191 181 181 172 156 148 150 151 150 150 150 150 151 153 153 150 148
314 309 305 306 307 308 308 309 310 311 309 307 307 308 307 309 309 310 313 319 323 322 321 317 309 250 180 171 161 148 145 145 144 145 145 144 144 147 147 146 148 149 148